This is the latest recevied weather packets stored in our database for station/object W1ERB-13. If no packets are shown the sender has not sent any weather packets the latest 10 day(s).
| Time | Temp. | Humidity | Pressure | Rain* | Wind** | Luminosity | Snow |
|---|---|---|---|---|---|---|---|
| 1778174095 | 15.56° C | 36% | 1008.5 hPa | 0 mm | - | 725 W/m² | - |
| 1778173793 | 16.11° C | 37% | 1008.4 hPa | 0 mm | - | 731 W/m² | - |
| 1778173490 | 16.67° C | 36% | 1008.6 hPa | 0 mm | - | 733 W/m² | - |
| 1778173186 | 15.56° C | 42% | 1008.7 hPa | 0 mm | - | 736 W/m² | - |
| 1778172882 | 16.67° C | 37% | 1008.8 hPa | 0 mm | - | 731 W/m² | - |
| 1778172578 | 16.67° C | 33% | 1008.5 hPa | 0 mm | - | 725 W/m² | - |
| 1778172275 | 16.11° C | 37% | 1008.6 hPa | 0 mm | - | 721 W/m² | - |
| 1778171972 | 15.56° C | 38% | 1008.9 hPa | 0 mm | - | 724 W/m² | - |
| 1778171670 | 15.56° C | 36% | 1009.1 hPa | 0 mm | - | 723 W/m² | - |
| 1778171366 | 15.56° C | 35% | 1008.8 hPa | 0 mm | - | 724 W/m² | - |
| 1778171061 | 16.11° C | 35% | 1008.9 hPa | 0 mm | - | 725 W/m² | - |
| 1778170759 | 16.11° C | 36% | 1009.2 hPa | 0 mm | - | 729 W/m² | - |
| 1778170455 | 15.56° C | 35% | 1009.2 hPa | 0 mm | - | 728 W/m² | - |
| 1778170152 | 14.44° C | 38% | 1009.3 hPa | 0 mm | - | 735 W/m² | - |
| 1778169848 | 14.44° C | 34% | 1009.4 hPa | 0 mm | - | 724 W/m² | - |
| 1778169544 | 15.56° C | 37% | 1009.4 hPa | 0 mm | - | 665 W/m² | - |
| 1778169240 | 15° C | 36% | 1009.4 hPa | 0 mm | - | 670 W/m² | - |
| 1778168937 | 14.44° C | 39% | 1009.4 hPa | 0 mm | - | 721 W/m² | - |
| 1778168634 | 13.89° C | 40% | 1009.4 hPa | 0 mm | - | 734 W/m² | - |
| 1778168388 | 13.89° C | 40% | 1009.6 hPa | 0 mm | - | 750 W/m² | - |
| 1778168332 | 13.89° C | 40% | 1009.6 hPa | 0 mm | - | 750 W/m² | - |
| 1778168028 | 13.89° C | 45% | 1009.3 hPa | 0 mm | - | 754 W/m² | - |
| 1778167911 | 13.89° C | 42% | 1009.5 hPa | 0 mm | - | 746 W/m² | - |
| 1778167724 | 13.89° C | 42% | 1009.5 hPa | 0 mm | - | 746 W/m² | - |
| 1778167469 | 13.89° C | 40% | 1009.6 hPa | 0 mm | - | 730 W/m² | - |
* Rain latest hour (hover to see other rain measurements)
** Current wind speed in m/s (hover to see current wind gust speed)